Regional Weather Roundup
Issued by NWS Upton, NY

Home | Current Version | Previous Version | Text Only | Print | Product List | Glossary On
Versions: 1 2 3 4 5 6 7 8 9 10 11 12 13 14 15 16 17 18 19 20 21 22 23 24 25 26 27 28 29 30 31 32 33 34 35 36 37 38 39 40 41 42 43 44 45 46 47 48 49 50
000
ASUS41 KOKX 080908
RWROKX

REGIONAL WEATHER ROUNDUP
NATIONAL WEATHER SERVICE NEW YORK NY
400 AM EST THU DEC 08 2016

NOTE: "FAIR" INDICATES FEW OR NO CLOUDS BELOW 12,000 FEET WITH NO
SIGNIFICANT WEATHER AND/OR OBSTRUCTIONS TO VISIBILITY.

NYZ071-072-176-178-NJZ106-104-081000-
NEW YORK CITY METRO AREA

CITY           SKY/WX    TMP DP  RH WIND       PRES   REMARKS
Central Park   PTCLDY    41  29  62 CALM      30.01F
Wall St Helipt MOSUNNY   41  34  76 W6        30.01F
Bronx Bot Gard NOT AVBL
LaGuardia APRT MOCLDY    44  29  55 W5        29.99F
Kennedy INTL   MOCLDY    39  31  72 W7        30.00F WCI  34
Breezy Point     N/A     39 N/A N/A W8          N/A  WCI  34
Newark/Liberty MOCLDY    35  31  85 SW3       30.00F
Teterboro      PTCLDY    34  31  88 CALM      29.99F
$$

NYZ177-179-078>081-081000-
LONG ISLAND NEW YORK

CITY           SKY/WX    TMP DP  RH WIND       PRES   REMARKS
Jones Beach      N/A     41 N/A N/A W8          N/A
Matinecock PT    N/A     43 N/A N/A W12         N/A
Farmingdale    CLOUDY    35  33  92 W3        29.99F
MacArthur/ISP  PTCLDY    32  30  92 CALM      29.98F
Shirley        CLOUDY    31  30  96 CALM      29.99F FOG
Westhampton    CLOUDY    27  25  92 CALM      30.00S
Southampton    NOT AVBL
Bridgehampton  NOT AVBL
East Hampton     N/A     29  28  97 CALM      29.97F
Montauk          N/A     41  38  89 SW3       29.98S
$$

NYZ052-065-067-081000-
HUDSON VALLEY

CITY           SKY/WX    TMP DP  RH WIND       PRES   REMARKS
White Plains   CLOUDY    36  32  85 W3        29.96F
Newburgh       CLOUDY    34  34 100 SW5       29.97F WCI  30
Montgomery     CLOUDY    31  30  96 SW6       29.95F WCI  25
Poughkeepsie   PTCLDY    29  28  96 CALM      29.96F
Albany         FOG       34  33  96 SE5       29.96F VSB 1/4 WCI  30
$$

NJZ001-105-106-008-010-013-015-019>022-104-081000-
NEW JERSEY

CITY           SKY/WX    TMP DP  RH WIND       PRES   REMARKS
Newark/Liberty MOCLDY    35  31  85 SW3       30.00F
Teterboro      PTCLDY    34  31  88 CALM      29.99F
Caldwell       PTCLDY    32  30  92 CALM      30.00F
Somerville     CLOUDY    28  26  92 CALM      29.98F
Linden         PTSUNNY   37  31  79 W5        30.00F WCI  33
Sussex         CLOUDY    29  29 100 CALM      29.97F
Andover          N/A     30  29  96 CALM      29.98F
Trenton        PTCLDY    32  28  85 NW3       30.00F
Millville      CLOUDY    27  27 100 CALM      30.04S FOG
Atlantic City  CLOUDY    31  29  92 CALM      30.03S FOG
Wrightstown    PTCLDY    32  29  92 CALM      29.98F
Toms River     PTCLDY    28  27  96 CALM      30.02
Belmar         MOCLDY    32  31  96 SW6       30.01F WCI  26
$$

PAZ047>061-062-071-081000-
EASTERN PENNSYLVANIA

CITY           SKY/WX    TMP DP  RH WIND       PRES   REMARKS
Philadelphia   CLOUDY    37  28  70 W6        30.03F WCI  32
Allentown      CLOUDY    33  26  75 SW7       30.00S WCI  27
Scranton       CLOUDY    36  25  64 SW6       29.96F WCI  31
$$

CTZ002-004>006-009-010-012-RIZ004-006-007-MAZ004-011-015-081000-
SOUTHERN NEW ENGLAND
 IN CT

CITY           SKY/WX    TMP DP  RH WIND       PRES   REMARKS
Bradley INTL   FOG       29  28  96 NW3       29.97S VSB 3/4
Hartford       FOG       31  31 100 SE5       29.97F VSB 1/4 WCI  26
Danbury        CLOUDY    29  27  92 CALM      29.97F
Wtrbury/Oxford CLOUDY    30  28  93 CALM      29.97S VSB 1/2
Bridgeport     NOT AVBL
Meriden        FOG       32  30  92 CALM      29.98S VSB 1/4
New Haven      PTCLDY    33  30  88 CALM      29.98S
Chester        PTSUNNY   37  34  87 CALM      29.96S
Groton         CLOUDY    35  33  92 CALM      29.97S
Wilimantic     FOG       34  33  96 CALM      29.97S VSB 1/4

 IN RI

CITY           SKY/WX    TMP DP  RH WIND       PRES   REMARKS
Providence     MOCLDY    35  33  92 W3        29.96F
Block Island   CLOUDY    42  38  85 NW3       29.97S
Westerly       CLOUDY    32  29  88 CALM      29.97S
 IN MA

CITY           SKY/WX    TMP DP  RH WIND       PRES   REMARKS
Boston         PTCLDY    37  33  85 SW8       29.95F WCI  31
Worcester      CLOUDY    32  29  88 W7        29.92S WCI  26
Westfield      FOG       29  29 100 CALM      29.96S VSB 1/4
Provincetown   PTCLDY    41  33  73 W12       29.95F
Nantucket      CLOUDY    41  38  89 W5        29.95F
$$

ANZ330-335-338-340-345-350-353-355-081000-
COASTAL MARINE OBSERVATIONS


STATION/POSITION TIME  SKY/WX   TEMP    WIND        PRES    VSBY  WAVE
                                AIR SEA DIR/SP/G                  HT/PER
                 (UTC)          (F)     (DEG/KT/KT) (MB)    (MI)  (FT/S)
NY HARB ENTRANCE 0850            45 52  260/ 14/ 17 1015.6          3/ 8
20 S FIRE ISLAND 0850            47 53  290/ 14/ 17 1015.4          4/ 8
GREAT SOUTH BAY  0830            39 42                N/A
23 SSW MONTAUK P 0850            46 54  270/ 10/ 14 1015.3          4/ 8
15 E BARNEGAT LI 0830               53                N/A           4/ 8
HUDSON CANYON    0750            50 56              1015.4          6/ 8
KINGS POINT      0836            42 48              1015.3
EXECUTION ROCKS  0845            43     260/  6/ 10   N/A
CENTRAL LI SOUND 0845            45 50  290/ 10/ 12   N/A           0
EASTERN LI SOUND NOT AVBL
ROBBINS REEF     0836            39     260/  9/ 11 1016.0
$$


>>>>>>>>>>>>>>>>>>>>>>>>>>>> KEY <<<<<<<<<<<<<<<<<<<<<<<<<<<
>                                                          <
>     SKY/WX - Sky Condition/Present Weather               <
>     TMP    - Temperature in Fahrenheit                   <
>     DP     - Dew Point in Fahrenheit                     <
>     RH     - Relative Humidity in Percent                <
>     WIND   - Direction (from) and Speed in MPH           <
>     PRES   - Mean Sea Level Pressure (inches of Hg)      <
>     WCI    - Wind Chill Index                            <
>     VSB    - VISIBILITY IN MILES                         <
>     HX     - HEAT INDEX                                  <
>     TC     - TEMPERATURE IN CELSIUS                      <
>     VRB    - VARIABLE WIND DIRECTION                     <
>                                                          <
>>>>>>>>>>>>>>>>>>>>>>>>>>>> KEY <<<<<<<<<<<<<<<<<<<<<<<<<<<



USA.gov is the U.S. government's official web portal to all federal, state and local government web resources and services.